Tracking 19709 objects as of 18-Jun-2019
HD Live streaming from Space Station
objects crossing your sky now

SMS 2 AKM

Track SMS 2 AKM now!


NORAD ID: 20835
Int'l Code: 1975-011F
Perigee: 35,862.8 km
Apogee: 36,683.4 km
Inclination: 10.1 °
Period: 1,460.7 minutes
Semi major axis: 42644 km
RCS: 0.7943 m2 (medium)
Launch date: February 6, 1975
Source: United States (US)
Launch site: AIR FORCE EASTERN TEST RANGE (AFETR)

Note: This is a ROCKET BODY
aabbcc
Your satellite tracking list
Your tracking list is empty




NASA's NSSDC Master Catalog

Two Line Element Set (TLE):
1 20835U 75011F   19168.86299234 -.00000010  00000-0  00000+0 0  9991
2 20835  10.0844 306.1211 0096209  63.0858 114.9337  0.98585835 91499
Source of the keplerian elements: AFSPC